Location: Gulgong NSW 2852, Australia
(32.2976°S, 149.5548°E)
Time: 09:07:41
(UTC+11:00)

ISS - Pass Details

Date: 13 December 2021
Orbit: 414 x 422 km, 51.6° (Epoch: 16 January)

Event Time Altitude Azimuth Distance (km) Brightness Sun altitude
Rises 04:52:05 0° 217° (SW) 2,380 0.1 -10.9°
Reaches altitude 10° 04:54:20 10° 207° (SSW) 1,511 -0.8 -10.5°
Maximum altitude 04:57:26 33° 141° (SE) 732 -1.7 -10.0°
Drops below altitude 10° 05:00:32 10° 74° (ENE) 1,500 -0.4 -9.5°
Sets 05:02:45 0° 64° (ENE) 2,358 0.5 -9.1°
